This is the latest recevied weather packets stored in our database for station/object KE8RXN. If no packets are shown the sender has not sent any weather packets the latest 10 day(s).
| Time | Temp. | Humidity | Pressure | Rain* | Wind** | Luminosity | Snow |
|---|---|---|---|---|---|---|---|
| 1778026425 | 10° C | 50% | 1012.2 hPa | 0 mm | - | 14 W/m² | - |
| 1778026122 | 10° C | 50% | 1012 hPa | 0 mm | - | 15 W/m² | - |
| 1778025820 | 10° C | 50% | 1012.2 hPa | 0 mm | - | 18 W/m² | - |
| 1778025516 | 10.56° C | 49% | 1012.1 hPa | 0 mm | - | 23 W/m² | - |
| 1778025214 | 10.56° C | 47% | 1012.1 hPa | 0 mm | - | 29 W/m² | - |
| 1778024911 | 10.56° C | 48% | 1012.2 hPa | 0 mm | - | 28 W/m² | - |
| 1778024609 | 10.56° C | 47% | 1012.4 hPa | 0 mm | - | 35 W/m² | - |
| 1778024305 | 10.56° C | 47% | 1012 hPa | 0 mm | - | 36 W/m² | - |
| 1778024003 | 10.56° C | 47% | 1012 hPa | 0 mm | - | 35 W/m² | - |
| 1778023700 | 10.56° C | 46% | 1012.2 hPa | 0 mm | - | 44 W/m² | - |
| 1778023398 | 10.56° C | 45% | 1012.1 hPa | 0 mm | - | 44 W/m² | - |
| 1778023095 | 10.56° C | 45% | 1011.9 hPa | 0 mm | - | 50 W/m² | - |
| 1778022793 | 10.56° C | 44% | 1012.1 hPa | 0 mm | - | 60 W/m² | - |
| 1778022491 | 10.56° C | 45% | 1012.1 hPa | 0 mm | - | 59 W/m² | - |
| 1778022188 | 10.56° C | 44% | 1012 hPa | 0 mm | - | 72 W/m² | - |
| 1778021884 | 10.56° C | 44% | 1012 hPa | 0 mm | - | 78 W/m² | - |
| 1778021581 | 11.11° C | 44% | 1012.1 hPa | 0 mm | - | 69 W/m² | - |
| 1778021276 | 11.11° C | 44% | 1012.2 hPa | 0 mm | - | 71 W/m² | - |
| 1778020974 | 11.11° C | 45% | 1012.1 hPa | 0 mm | - | 85 W/m² | - |
| 1778020671 | 10.56° C | 45% | 1012.2 hPa | 0 mm | - | 95 W/m² | - |
| 1778020367 | 11.11° C | 44% | 1012 hPa | 0 mm | - | 100 W/m² | - |
| 1778020063 | 11.11° C | 45% | 1012.1 hPa | 0 mm | - | 85 W/m² | - |
| 1778019760 | 11.11° C | 45% | 1012 hPa | 0 mm | - | 91 W/m² | - |
| 1778019457 | 11.11° C | 44% | 1012.1 hPa | 0 mm | - | 116 W/m² | - |
| 1778019154 | 11.11° C | 46% | 1012.1 hPa | 0 mm | - | 114 W/m² | - |
* Rain latest hour (hover to see other rain measurements)
** Current wind speed in m/s (hover to see current wind gust speed)